Wind_Speed
17 15 14 13 9 6 6 7 8 7 8 9 11 12 13 11 11 10 8 9 10 13 13 13 15 11 5 5 8 10 7 2 2 1 1 2 2 2 4 5 6 5 5 6 5 3 3 3 3 3 3 4 5 5 5 5 5 6 7 8 7 7 6 4 4 4 3 3 4 4 3 4 6 6 6 4 5 7 7 6 7 8 9 10 11 13
14 10 6 5 3 4 6 7 7 7 8 10 10 11 9 7 8 8 4 7 10 14 13 12 13 11 7 7 9 11 7 2 4 1 0 0 1 1 2 3 5 6 7 9 8 6 5 4 4 3 3 3 4 5 6 5 5 6 7 8 9 8 7 5 5 5 4 5 5 5 4 4 5 6 7 6 6 7 7 6 5 7 8 9 11 13
11 5 6 5 2 2 4 5 6 7 8 9 8 9 9 7 8 8 4 5 8 12 13 12 12 11 10 10 10 12 8 5 5 2 1 2 2 1 1 2 3 4 7 9 10 9 7 6 5 5 5 4 4 6 7 7 6 6 6 8 9 9 8 7 6 6 6 6 6 6 5 5 5 5 6 7 7 7 7 5 4 5 7 9 11 13
10 7 4 1 2 3 4 5 6 6 6 6 7 7 8 7 9 10 7 6 6 10 12 10 9 10 11 10 9 10 8 8 6 2 2 3 2 1 2 3 3 3 5 8 11 12 10 7 7 6 6 6 7 7 8 8 7 6 7 8 9 9 9 9 8 7 8 8 7 7 6 5 6 5 5 6 7 7 6 5 4 5 6 8 11 12
9 6 2 3 3 4 4 3 5 6 5 5 6 7 7 7 8 9 8 8 6 7 9 9 8 10 11 9 7 6 7 9 6 3 3 2 3 4 4 4 4 4 4 7 10 13 13 11 9 8 9 9 9 8 8 8 8 8 8 9 10 10 10 10 9 9 9 8 7 7 6 5 6 5 4 5 5 5 5 5 5 5 6 8 10 12
9 6 4 4 4 5 4 3 3 5 5 6 5 6 7 8 8 7 8 9 9 7 7 9 7 6 7 8 6 6 6 8 6 4 3 2 4 5 5 4 5 6 4 6 8 11 14 14 12 11 11 11 10 9 9 9 10 10 10 10 11 11 11 11 11 10 10 8 7 6 6 6 5 5 5 5 5 4 4 4 5 6 7 9 11 12
9 6 5 5 5 5 5 5 3 4 7 7 6 6 9 9 8 8 8 8 7 6 5 9 9 5 6 8 6 7 6 6 7 6 3 3 4 5 5 5 5 6 4 5 8 10 13 14 13 12 12 11 10 10 10 10 10 10 10 10 11 11 12 12 12 11 9 7 7 6 6 7 6 6 6 6 6 5 4 4 5 7 8 10 12 14
7 6 6 7 7 7 7 6 4 5 8 8 7 9 11 11 9 10 10 8 7 8 5 6 11 9 9 10 8 8 6 5 7 7 4 2 2 2 4 4 5 5 4 3 5 9 11 12 12 11 10 10 10 11 13 12 10 9 9 9 11 12 13 14 14 12 10 8 8 7 7 8 8 7 7 7 6 6 5 5 6 7 9 10 13 15
5 4 5 7 9 9 9 8 7 8 10 10 8 9 10 10 11 11 10 10 9 8 6 6 9 7 8 10 9 9 8 5 6 6 4 1 2 1 3 2 3 4 3 2 2 4 6 8 10 10 10 11 12 13 14 13 12 11 9 10 12 14 16 16 14 13 11 10 9 8 8 9 9 8 8 6 6 7 7 7 6 8 9 10 13 15
3 3 4 7 9 10 9 7 8 9 11 10 8 8 9 10 11 10 10 11 8 8 8 9 9 7 6 9 10 9 8 5 4 5 3 1 2 1 0 1 2 3 3 3 3 2 4 6 8 9 11 12 14 14 15 15 15 13 13 14 15 16 17 16 14 13 11 9 8 8 9 10 11 10 8 6 5 6 7 8 7 8 8 10 12 15
0 2 4 7 9 10 10 9 9 8 8 8 9 10 10 11 10 9 10 10 6 5 7 8 11 9 3 6 11 10 5 3 3 4 2 1 3 4 2 2 2 3 3 3 3 3 3 5 7 8 9 11 13 15 16 16 16 15 15 16 16 16 17 14 13 12 9 8 8 9 10 11 12 12 9 6 5 5 7 8 8 8 8 10 12 15
1 1 5 8 8 7 9 10 10 9 8 7 8 9 9 9 7 5 5 5 2 2 4 7 12 12 6 5 9 9 5 3 4 4 1 1 4 5 3 2 2 4 5 4 3 2 4 5 7 8 9 10 12 14 16 16 16 16 16 16 16 16 13 9 11 10 9 8 8 9 10 11 13 13 10 8 7 6 6 8 8 8 8 9 12 14
2 3 6 9 8 8 6 8 9 9 8 7 8 10 8 5 4 2 2 2 3 3 2 5 11 12 9 8 8 10 8 6 5 4 3 1 3 5 4 4 4 5 5 6 5 3 5 7 7 8 9 11 12 14 15 16 17 16 16 15 13 11 8 9 10 10 9 8 8 9 10 11 13 14 12 10 9 8 7 8 8 8 8 9 12 13
3 3 8 10 8 12 8 4 5 5 4 4 6 7 5 0 3 2 2 2 4 3 2 5 7 6 7 8 9 10 10 8 7 7 5 2 4 6 6 6 6 6 6 7 5 4 5 7 8 8 9 10 12 14 15 17 18 17 17 14 10 8 9 11 11 10 9 8 8 9 10 11 13 14 13 11 10 10 9 9 9 8 8 9 11 13
3 1 9 12 10 13 11 4 3 4 5 6 6 5 6 4 1 2 3 2 2 1 5 6 4 4 6 7 9 11 10 9 9 8 5 4 6 6 6 7 8 8 8 7 4 3 5 7 7 8 8 9 11 13 15 17 18 18 17 14 10 9 11 13 12 11 10 9 10 10 10 11 12 13 12 11 11 11 10 10 10 9 8 9 10 12
2 2 6 10 11 12 8 4 1 3 5 5 5 5 6 7 6 4 3 2 2 1 4 5 4 6 8 7 9 11 9 8 9 8 6 6 6 6 7 8 9 9 9 8 5 3 4 6 6 7 8 9 10 11 12 13 15 17 18 15 12 12 13 13 13 12 11 11 11 12 12 12 13 13 12 11 10 10 11 12 11 10 9 10 11 12
1 1 2 7 11 10 9 10 7 0 2 3 5 6 7 7 7 5 3 1 1 2 2 5 5 7 8 7 10 11 9 9 10 9 6 6 6 6 7 8 9 9 10 10 7 4 4 4 6 8 10 10 10 11 10 10 11 13 16 16 14 14 14 14 13 12 13 12 11 12 13 13 13 13 12 11 10 10 12 13 13 12 11 11 12 13
0 1 1 4 9 9 10 12 11 7 5 5 4 6 7 6 4 4 1 2 2 1 2 4 5 7 8 6 7 10 11 11 11 8 5 6 6 6 6 7 8 9 11 12 8 4 3 4 5 8 10 11 11 11 10 8 8 10 13 15 16 16 16 15 13 13 13 11 10 11 13 14 13 12 12 12 12 12 13 14 14 13 13 13 14 15
2 2 2 2 6 6 5 6 9 10 10 8 6 3 2 3 2 2 1 1 1 0 2 4 5 8 11 7 3 6 10 12 11 7 4 5 6 5 5 7 8 8 10 11 8 5 5 5 6 8 10 11 12 11 10 9 8 8 9 11 14 16 16 14 15 15 14 12 11 11 13 13 13 12 12 12 13 14 15 15 16 16 15 15 16 16
4 4 2 3 5 3 2 1 7 9 7 7 7 7 6 5 2 0 1 1 3 2 1 3 3 7 14 12 5 5 8 9 8 5 3 4 5 5 5 7 8 9 11 11 8 6 7 8 8 8 10 11 11 11 10 9 8 8 8 9 11 13 13 13 15 15 14 14 14 13 13 13 13 12 12 12 13 14 15 17 18 19 19 17 16 16
4 4 3 4 5 3 2 3 7 7 6 4 5 7 9 8 5 3 2 1 2 3 3 2 2 7 13 11 7 7 8 7 5 4 3 3 5 6 6 7 8 10 11 11 9 7 8 9 10 9 10 12 12 11 11 10 10 9 8 9 9 10 10 11 14 14 14 15 16 16 15 15 14 14 13 13 14 15 16 19 21 20 18 17 17 16
3 5 6 6 6 5 6 5 6 6 7 7 7 10 10 7 5 2 1 1 1 2 3 3 3 7 9 9 8 8 8 8 6 5 5 3 3 4 6 7 8 10 11 11 9 9 9 9 10 10 10 12 12 11 11 10 10 10 9 9 9 9 8 9 12 15 15 16 16 17 17 17 16 16 15 15 15 16 18 20 20 17 17 18 18 17
5 6 6 6 5 3 5 5 6 7 6 6 8 9 9 8 7 4 1 1 1 2 3 3 3 5 6 7 9 9 9 9 7 7 6 4 3 3 5 6 8 10 10 9 9 10 10 10 10 9 9 11 11 10 10 10 10 10 10 9 9 8 7 8 10 13 15 16 16 17 18 19 18 17 17 17 17 18 20 20 16 15 17 18 19 19
6 6 5 5 4 2 6 7 5 6 5 4 6 7 8 8 9 7 4 3 4 4 5 2 1 5 7 7 9 10 10 10 9 8 8 5 3 2 2 3 6 8 8 8 9 9 9 8 8 8 9 10 10 9 9 9 10 10 10 9 9 8 7 8 9 11 13 14 16 18 19 19 19 19 18 19 19 20 22 20 15 15 18 18 19 20
3 2 4 5 3 3 2 6 5 1 3 5 6 7 7 7 8 8 6 6 6 6 6 3 2 6 8 9 12 13 11 11 11 11 10 7 5 3 2 3 5 7 7 8 8 8 8 7 7 7 8 8 8 8 8 8 9 9 9 9 9 8 8 8 9 10 11 13 15 17 18 19 20 20 20 21 21 21 23 20 15 15 17 18 19 19
1 2 4 5 2 1 1 2 4 5 6 8 7 8 9 9 10 10 10 8 7 8 9 8 6 7 9 11 14 14 13 13 12 12 11 10 8 6 6 6 6 7 8 9 9 8 6 5 5 6 6 6 6 7 8 8 8 8 9 9 9 9 9 9 9 10 11 12 13 15 17 18 20 21 21 22 21 22 24 20 13 13 16 18 19 20
1 2 3 4 3 1 2 2 2 4 7 9 9 11 11 12 13 12 12 10 9 11 12 13 10 8 9 11 14 15 15 14 14 13 13 12 10 9 8 8 8 8 9 9 10 10 8 7 6 7 7 6 5 5 6 6 6 7 7 8 9 10 10 10 10 11 11 11 12 13 14 15 17 18 19 20 20 21 23 19 13 13 16 17 19 20
1 1 1 1 2 1 3 3 3 5 8 10 12 14 14 15 15 14 14 14 12 11 12 14 14 13 11 11 14 16 16 16 15 15 14 13 12 12 11 11 10 9 10 10 11 12 12 11 9 8 8 7 7 6 5 6 6 6 7 9 10 12 13 12 12 12 12 12 12 12 13 13 14 15 16 17 18 19 21 20 15 14 16 18 18 19
2 3 2 2 2 2 3 5 6 8 10 12 14 16 17 18 18 18 19 20 16 14 15 15 15 16 14 12 13 15 16 16 15 15 15 14 13 12 12 11 10 10 10 11 11 13 15 14 12 11 9 8 8 8 8 7 8 9 10 10 12 15 17 17 14 13 12 12 12 12 13 14 15 16 17 17 18 19 20 21 18 17 18 19 19 19
8 8 7 7 7 8 9 10 10 10 11 13 15 16 18 19 21 22 22 19 16 15 17 16 15 15 13 11 11 12 13 14 14 14 13 13 11 9 9 9 10 11 11 11 11 13 16 17 17 16 14 11 9 9 10 10 10 11 11 12 14 16 17 18 18 14 12 12 13 14 15 15 16 16 17 18 18 19 20 21 20 20 19 20 20 21
13 12 11 12 13 13 13 13 11 10 11 12 12 13 14 16 18 18 16 13 13 14 15 15 13 11 10 9 8 9 10 11 11 11 11 10 9 7 7 7 9 11 12 13 13 14 16 18 19 20 19 17 13 11 11 11 11 12 11 10 11 11 10 15 18 16 14 13 13 15 16 16 17 17 18 18 19 19 20 21 21 21 21 21 21 22
16 14 12 12 12 13 12 12 11 10 11 12 10 9 9 10 9 7 5 5 8 11 13 12 11 11 11 10 9 9 9 8 8 9 9 9 9 8 7 8 11 14 15 15 16 16 17 19 20 21 21 20 17 15 14 13 12 14 13 11 9 6 6 13 17 17 16 15 14 15 16 16 17 17 18 18 19 19 20 20 21 21 21 21 21 22
16 14 12 10 9 9 8 8 9 10 9 8 6 4 4 4 4 4 4 2 4 8 9 10 11 12 12 10 10 10 9 8 9 8 7 7 9 9 11 13 17 20 20 19 19 20 21 21 22 22 22 21 19 17 17 16 15 15 16 15 12 9 8 12 16 17 18 17 16 17 17 17 17 17 17 17 18 19 20 20 19 19 19 20 20 20
16 13 10 8 6 5 5 6 7 6 5 4 3 1 2 3 3 4 4 1 3 6 8 8 10 11 10 9 10 10 8 6 6 6 5 8 11 12 14 17 19 21 22 21 21 22 24 24 24 23 22 20 19 18 18 17 15 15 15 14 14 13 12 11 13 16 18 19 18 17 17 17 17 16 16 16 16 17 18 18 18 17 17 18 18 18
15 11 7 6 6 5 5 4 2 3 4 4 3 3 1 2 3 3 4 3 1 4 6 7 8 11 12 12 10 10 8 7 11 13 13 14 18 17 15 17 18 20 21 22 22 23 24 26 27 26 24 20 18 17 16 15 13 11 11 10 10 12 13 13 13 14 17 19 19 18 18 18 17 16 16 16 16 16 17 17 17 16 16 17 17 18
11 8 6 7 7 5 4 4 1 2 6 6 4 4 3 3 3 4 4 3 3 4 4 6 9 12 13 11 10 13 15 14 17 20 19 19 23 24 21 21 21 21 23 25 26 27 28 29 30 30 29 26 23 20 18 16 12 8 8 9 9 10 13 15 14 14 16 18 18 17 18 18 18 17 17 16 16 16 16 17 17 17 17 18 18 18
8 8 7 7 7 5 3 3 3 4 7 9 6 5 5 5 4 5 5 5 6 7 8 9 11 14 14 12 10 11 13 13 14 17 18 20 23 24 23 24 24 24 26 28 30 32 32 33 34 34 33 30 27 24 20 16 12 11 12 12 12 12 13 15 17 18 19 19 18 17 16 17 17 17 17 17 17 16 16 17 17 18 19 19 19 18
9 9 8 6 6 6 5 4 5 4 6 10 11 8 8 8 8 8 8 10 10 10 11 12 13 14 15 14 11 10 12 13 13 13 16 18 19 19 19 21 24 27 28 30 32 33 33 34 34 34 33 29 26 25 21 18 15 15 16 16 15 14 15 16 19 22 25 26 24 21 17 15 15 16 16 17 16 16 17 18 18 19 19 19 19 19
8 10 9 8 6 7 6 5 5 5 7 10 13 13 12 11 11 10 9 11 13 13 13 13 13 15 15 15 15 15 15 15 14 15 17 17 18 18 18 19 21 24 25 28 30 31 32 33 33 32 31 29 26 24 23 21 18 17 19 20 19 18 19 20 22 24 27 29 30 29 24 19 17 17 17 17 17 17 17 18 19 19 19 19 20 21
3 6 9 9 8 8 8 6 7 8 8 10 13 14 13 12 12 9 7 9 12 12 11 12 13 15 16 17 18 18 18 17 18 19 22 22 22 22 21 21 21 22 24 27 29 30 31 32 32 32 32 31 27 24 23 22 19 18 21 22 22 23 23 24 26 27 27 29 31 32 30 28 26 23 20 20 20 19 19 19 19 19 20 20 21 21
2 1 4 6 6 7 7 6 6 7 8 10 12 13 12 10 10 8 7 9 11 12 13 13 14 15 17 18 19 19 19 21 22 24 25 25 25 24 24 25 25 25 27 28 29 31 32 32 33 33 33 33 31 27 23 22 20 19 19 21 24 26 27 27 28 28 29 30 30 30 31 31 31 29 25 24 24 23 22 21 20 19 20 20 21 21
1 0 1 4 5 5 5 6 5 5 7 8 10 10 10 8 8 8 9 10 12 13 15 16 16 17 18 19 20 21 22 24 26 27 26 26 26 26 26 27 27 27 28 29 30 32 33 34 35 35 34 34 33 31 26 23 21 19 19 21 24 27 29 30 29 29 30 31 31 31 30 29 29 28 27 28 28 27 25 23 22 20 20 20 20 20
4 3 3 4 4 4 5 5 5 4 5 8 8 8 8 8 8 8 9 10 11 12 14 16 17 19 20 21 22 23 26 28 30 30 29 29 29 30 31 31 31 31 31 32 33 34 34 35 35 36 36 35 34 33 31 28 25 22 20 21 24 26 27 30 31 31 31 31 31 30 29 29 29 28 27 28 29 28 28 27 25 22 20 19 18 18
5 5 5 4 4 4 4 4 4 4 5 7 8 9 10 10 11 11 11 11 11 12 14 15 17 19 21 23 25 27 29 31 33 33 34 34 35 35 35 35 35 34 34 34 35 35 35 34 33 34 36 36 34 33 33 32 30 27 24 24 26 26 26 27 29 31 32 32 30 28 27 28 28 27 26 25 25 24 25 27 27 24 21 19 18 17
4 4 4 4 5 5 6 6 6 7 7 8 9 11 12 12 13 13 13 13 14 15 17 18 19 21 23 25 28 30 32 34 35 36 37 37 37 36 35 34 33 32 32 31 31 30 30 30 29 29 31 33 33 32 32 34 34 32 29 29 30 30 29 28 29 30 31 31 30 28 28 28 26 25 23 21 19 20 23 25 26 25 22 19 18 18
5 5 5 5 5 6 7 7 7 7 8 9 10 11 11 11 12 13 14 15 16 18 20 21 23 24 27 29 31 33 34 35 37 37 36 35 34 32 31 29 28 28 27 26 25 25 26 27 27 27 28 29 30 30 30 32 35 36 34 33 34 34 33 32 32 32 31 31 28 26 26 27 26 26 24 21 18 19 22 24 26 26 24 19 16 16
6 6 6 6 5 5 6 7 7 8 9 9 9 9 10 10 11 13 14 16 18 20 23 26 28 30 31 33 34 35 35 35 35 35 33 32 32 30 29 28 27 27 27 26 26 26 27 28 28 28 28 28 28 29 28 29 31 35 36 36 36 36 35 34 35 34 34 33 30 26 23 24 25 26 26 24 22 22 23 23 25 26 27 24 21 19
6 7 7 7 7 7 8 8 9 9 9 9 8 8 10 11 13 15 17 19 22 25 27 29 30 31 32 31 32 32 32 31 32 32 32 32 31 31 31 30 29 29 28 28 28 28 29 29 30 29 29 28 28 28 27 27 27 31 35 37 38 37 37 36 35 35 34 33 32 29 25 24 24 24 25 25 25 25 25 25 25 27 29 30 29 27
8 8 8 7 7 8 8 9 9 10 9 10 10 12 14 16 18 20 22 24 25 26 27 27 27 27 27 27 27 27 28 27 28 30 31 31 31 32 32 31 31 30 30 30 30 30 30 31 31 31 31 30 29 28 27 26 25 26 30 35 38 38 38 38 37 35 34 32 31 30 28 26 25 25 24 24 25 26 27 27 27 28 29 31 32 31
9 9 8 7 7 8 8 8 9 10 11 12 14 16 18 20 22 24 25 26 26 26 26 25 24 24 24 24 25 26 26 26 27 29 30 31 31 32 32 32 32 32 31 31 31 31 31 31 31 32 32 31 31 30 28 27 26 25 26 30 35 38 39 39 38 37 35 33 31 30 29 28 28 27 26 25 25 26 28 29 30 31 31 32 33 33
9 9 9 9 9 9 9 9 10 11 13 15 18 20 21 23 24 25 25 25 24 25 25 25 25 24 24 24 25 26 27 27 27 29 30 31 31 32 33 34 34 33 32 32 32 32 32 31 31 32 32 32 32 31 30 28 27 26 26 27 30 34 37 40 41 40 38 35 32 30 30 29 29 28 29 29 27 27 28 29 30 32 33 34 34 34
Wind_Direction
231 237 236 232 230 217 218 239 255 277 298 311 312 317 323 313 308 323 312 280 266 264 265 266 272 282 288 271 276 288 296 261 177 79 341 356 1 349 349 327 318 310 286 295 314 306 287 271 252 256 266 270 271 265 252 240 229 222 217 215 219 224 229 231 225 224 227 233 238 247 262 276 283 288 291 295 299 303 302 287 268 256 247 239 228 220
224 230 213 180 163 182 211 237 253 271 289 301 309 319 332 321 320 348 327 272 265 261 261 263 268 275 282 277 270 275 286 209 181 153 93 283 33 358 4 350 329 308 286 289 300 303 302 297 287 288 291 282 277 271 259 247 235 226 221 217 221 227 229 226 223 227 232 235 242 245 255 273 285 295 304 306 304 310 312 293 261 248 243 235 223 217
209 177 124 113 99 224 239 254 263 273 287 304 311 319 339 330 318 341 327 269 267 264 262 258 261 275 286 280 270 272 270 200 190 192 205 232 214 202 327 335 326 306 289 289 288 289 296 298 296 301 303 291 273 266 258 251 246 234 226 224 228 232 231 229 224 224 231 234 238 241 245 258 273 285 298 307 310 317 317 298 257 237 236 231 220 214
196 148 117 357 321 291 280 270 269 277 283 297 302 312 336 333 318 334 331 290 267 261 262 261 262 275 285 283 278 278 256 208 200 214 230 245 237 247 300 309 320 312 286 287 284 279 281 287 295 295 289 284 281 275 260 251 246 236 228 225 227 229 230 232 227 224 233 237 237 238 241 254 268 274 288 304 312 322 322 300 259 228 223 222 217 213
188 160 235 294 311 300 291 268 263 269 271 281 289 298 314 323 323 332 333 311 279 251 250 255 267 277 283 288 281 269 239 215 215 241 249 253 250 266 299 310 324 326 281 273 280 279 273 270 273 269 265 274 281 276 261 249 240 232 229 227 227 228 230 233 233 233 238 240 240 239 241 256 273 282 290 297 303 317 319 294 264 236 218 213 211 211
188 184 252 280 303 300 274 246 257 256 268 288 297 306 310 317 323 317 320 313 289 264 241 237 255 281 288 293 266 227 223 218 221 253 264 263 262 273 301 313 321 326 289 252 260 270 268 262 257 252 254 266 276 271 259 251 244 237 234 233 234 235 234 234 235 241 247 250 252 249 242 246 260 274 275 277 285 295 299 280 259 239 219 207 204 204
202 210 251 264 277 288 261 243 256 265 280 298 309 325 318 312 317 307 310 317 292 283 261 229 233 254 285 290 248 212 216 219 230 253 267 277 281 282 293 309 323 321 297 252 240 243 249 250 247 247 250 261 270 263 252 252 249 242 239 240 241 242 240 238 238 243 250 254 257 251 240 239 244 253 259 267 277 285 290 271 249 236 220 206 199 198
215 222 249 269 273 280 270 254 260 271 275 287 303 315 306 299 313 315 316 324 295 287 300 245 235 248 275 274 236 210 209 220 241 250 257 293 317 296 282 297 323 313 299 281 247 240 242 240 236 235 239 250 257 249 245 249 248 244 246 247 246 245 239 232 232 240 246 244 245 243 237 234 238 246 255 268 284 294 298 277 247 233 222 210 199 194
233 236 255 276 279 276 272 266 270 270 266 275 295 302 293 293 308 310 312 320 297 272 286 265 232 235 270 257 226 213 217 234 257 248 246 337 11 312 275 291 326 312 310 331 298 263 256 246 233 222 222 232 238 240 243 244 243 244 245 246 246 247 248 240 228 226 234 240 243 245 243 237 233 242 254 272 294 303 303 288 258 234 221 213 205 196
240 266 285 292 288 282 276 266 261 263 265 271 279 282 286 297 303 300 300 305 287 252 265 262 221 211 264 248 221 217 230 251 267 248 243 4 18 1 332 346 334 317 319 340 342 305 275 261 248 237 230 228 229 235 240 241 242 243 243 248 251 257 271 271 246 225 225 235 243 243 241 234 227 231 244 264 287 298 299 292 270 243 222 214 210 201
132 292 333 332 307 287 277 263 251 256 266 265 270 277 283 292 296 292 288 284 271 247 253 240 213 209 254 246 222 221 245 273 249 237 247 352 22 38 49 21 341 323 323 332 338 319 297 285 273 267 254 242 238 237 238 241 243 243 246 253 258 270 283 271 241 229 222 222 229 231 230 224 218 219 225 241 263 275 284 284 271 250 227 214 211 205
342 19 10 358 338 308 277 260 249 251 262 262 269 279 284 296 302 286 269 251 226 244 236 214 206 206 220 248 231 223 236 253 232 231 247 2 21 28 23 8 349 333 333 331 322 316 328 316 294 286 274 262 258 249 243 243 243 244 248 254 264 279 282 239 215 223 225 220 221 224 229 223 215 215 214 219 235 248 263 272 267 252 233 216 210 208
161 110 20 4 357 350 306 256 246 246 257 267 269 272 280 316 342 290 245 215 228 248 238 206 199 204 227 245 229 214 219 229 222 216 200 179 8 359 346 347 346 339 340 336 318 306 336 338 319 304 288 277 273 262 250 244 243 242 245 254 268 277 255 212 211 222 224 227 225 227 235 232 222 218 215 215 225 235 246 258 260 251 237 220 209 209
122 120 5 5 4 359 346 286 254 240 257 302 294 274 258 318 48 299 278 290 279 266 193 188 191 208 239 231 210 203 213 221 213 203 199 233 331 333 331 343 349 347 348 347 330 302 329 347 340 327 309 293 283 271 258 248 244 240 240 250 262 252 226 218 223 227 228 234 234 235 240 238 231 225 220 219 223 229 238 247 250 242 234 224 212 207
45 48 7 14 8 354 347 329 289 257 277 304 307 285 248 239 258 251 246 261 283 190 177 186 196 230 223 207 201 202 212 222 216 211 223 283 316 326 337 349 356 357 357 359 347 307 335 359 357 346 327 307 293 280 268 258 251 242 239 245 243 230 225 223 227 232 235 238 240 242 243 244 240 232 226 222 221 225 232 241 243 234 225 222 214 206
27 46 23 23 15 4 8 36 33 264 277 296 303 294 276 283 285 261 256 253 230 128 178 207 242 241 221 204 198 204 218 227 222 225 247 291 313 330 347 358 5 5 3 4 0 339 358 15 12 357 337 320 308 295 281 270 262 250 244 245 236 225 225 225 228 232 233 234 237 241 244 247 246 238 231 227 223 223 226 235 238 230 220 217 214 207
109 47 24 37 36 40 62 72 74 41 297 322 312 305 301 308 293 261 266 273 172 112 196 234 256 241 223 213 205 212 230 229 226 239 264 301 321 337 352 4 14 13 7 5 4 4 11 20 11 355 343 333 325 313 296 278 269 260 252 249 240 229 223 223 226 231 237 240 239 243 246 248 249 244 236 228 226 224 225 231 234 229 221 217 216 212
216 282 267 45 49 63 77 74 73 68 44 19 340 311 296 296 279 240 241 49 68 86 235 247 254 226 208 201 210 225 235 230 232 249 280 313 329 343 358 16 26 19 7 2 1 359 2 7 355 345 342 340 334 327 315 292 273 264 258 254 248 236 226 222 222 228 240 246 243 246 250 251 251 248 240 230 226 226 228 231 232 230 224 218 217 217
325 308 256 7 46 77 101 79 65 60 56 53 51 39 325 297 261 228 218 95 109 74 262 257 254 226 209 202 219 237 237 236 239 255 296 328 341 350 4 25 32 19 2 354 348 340 346 353 340 330 336 341 338 334 326 308 289 273 263 260 255 247 238 229 226 229 236 244 245 248 253 255 253 249 245 237 229 227 228 230 230 229 226 222 220 220
316 317 283 330 16 63 166 105 55 58 71 75 68 69 65 55 53 99 130 169 171 150 215 249 269 238 218 215 233 242 240 242 240 251 305 350 5 1 4 19 21 8 352 343 334 324 332 345 340 327 334 342 341 339 333 321 311 296 281 274 268 262 254 240 233 235 240 245 246 247 253 258 256 253 251 247 240 234 230 230 229 226 224 224 224 225
285 307 328 340 355 39 103 90 70 66 65 58 50 58 64 65 68 81 85 87 175 167 164 167 248 247 226 221 235 243 241 238 230 250 296 0 19 6 2 7 6 356 343 336 330 319 321 335 336 328 335 343 341 339 338 332 326 316 303 293 286 282 269 248 239 239 243 247 247 246 251 257 258 258 258 256 251 245 237 232 231 228 226 226 227 227
282 312 333 344 6 66 103 110 111 97 72 62 64 59 56 62 65 64 69 70 161 187 175 163 223 246 229 221 228 231 228 221 222 260 289 339 12 358 352 350 351 347 339 332 328 323 321 327 330 328 333 338 336 335 338 340 335 325 315 306 301 299 284 259 246 244 246 248 246 245 249 253 256 259 263 264 261 257 248 239 236 236 235 231 229 230
309 311 319 336 6 83 143 134 113 110 95 82 79 64 52 55 46 22 356 316 255 210 191 181 215 219 204 212 223 226 224 217 224 254 274 300 318 330 342 339 337 337 334 328 324 325 326 328 334 335 331 329 327 329 335 341 340 330 320 312 308 302 287 264 251 250 253 251 246 245 248 252 255 260 266 271 272 267 258 251 246 244 239 232 227 229
304 301 322 345 18 101 178 177 134 99 81 65 67 52 40 40 25 7 353 320 297 253 215 187 212 208 199 207 218 223 225 219 221 238 253 269 277 302 335 325 320 324 326 321 317 323 329 333 337 336 329 323 320 321 327 336 338 330 321 313 305 297 285 267 255 255 256 253 249 250 252 255 259 264 270 274 274 270 263 259 255 247 240 235 230 228
305 314 7 26 57 69 175 202 205 203 4 8 25 22 12 9 2 0 0 340 311 268 236 221 253 235 221 213 213 217 223 220 219 227 240 252 254 252 257 257 283 301 308 304 301 312 326 334 332 329 330 327 317 314 319 329 335 329 321 311 300 294 287 273 262 260 260 257 254 255 257 259 262 266 270 271 270 269 264 259 253 245 238 237 237 235
9 3 14 32 67 73 242 238 256 280 312 337 353 349 339 335 334 343 349 335 314 289 261 246 258 255 231 218 216 218 223 223 221 225 237 248 248 244 247 249 261 279 291 291 288 294 305 315 318 319 329 332 325 317 312 316 325 325 319 307 294 289 287 281 273 265 262 261 259 259 261 263 265 267 267 268 267 266 265 262 256 250 242 238 241 244
304 323 352 4 2 312 206 221 280 295 304 314 321 322 322 320 317 325 334 324 310 302 276 250 247 252 232 222 222 222 224 224 223 229 238 244 243 240 239 242 249 261 273 278 278 278 280 285 291 295 306 316 321 319 310 307 310 314 316 310 299 291 283 278 277 272 266 264 262 263 264 265 266 266 266 266 266 265 267 267 261 255 250 244 242 244
264 288 356 354 355 96 172 216 266 288 297 300 304 309 309 310 309 312 319 315 299 285 269 250 243 241 234 231 230 226 224 223 222 229 236 238 235 234 237 243 253 266 274 277 277 276 277 277 278 282 289 294 296 296 296 298 297 301 310 311 310 310 301 285 274 270 268 264 261 261 262 262 263 264 263 264 265 266 269 270 263 254 252 250 248 248
281 285 288 283 272 255 260 278 286 291 295 296 299 302 303 306 307 306 308 308 292 263 253 253 248 239 233 233 232 226 223 220 219 224 229 232 232 234 243 257 269 277 281 282 281 282 282 280 276 275 277 284 293 298 301 306 310 312 314 319 331 338 331 313 291 274 267 265 264 262 260 260 262 264 265 266 267 268 269 271 268 259 254 253 252 252
283 283 275 267 269 277 283 287 288 288 291 293 297 300 302 304 304 303 302 298 283 256 244 247 248 236 225 225 226 224 224 222 221 224 228 231 235 242 254 269 280 287 289 288 285 285 288 288 285 283 283 285 290 296 304 314 320 320 325 336 348 356 347 322 300 282 269 263 262 264 264 264 266 268 270 271 272 271 271 271 269 264 258 254 251 251
280 279 274 269 268 269 273 278 281 280 284 289 292 296 300 301 301 301 295 282 268 249 235 239 242 222 202 203 208 212 221 226 228 232 234 235 239 245 259 279 294 300 302 302 296 290 290 292 291 291 293 295 296 298 302 310 318 323 332 342 342 349 342 312 294 282 272 266 262 265 268 270 271 272 274 274 273 273 272 271 269 267 264 260 256 254
279 278 275 274 272 268 266 266 265 267 274 280 284 289 295 297 297 296 291 276 260 241 228 227 222 194 178 181 187 195 208 219 228 233 233 233 233 233 246 277 299 302 301 301 299 294 291 291 290 290 293 298 304 309 312 314 318 319 322 323 319 317 304 295 292 285 278 274 271 269 269 270 271 273 275 276 275 274 273 271 269 268 267 266 263 260
276 276 276 274 270 266 257 246 247 257 267 272 276 292 308 319 334 342 342 326 237 224 219 215 203 181 170 176 183 186 191 197 208 218 230 247 255 259 270 284 293 296 295 293 293 294 294 294 293 294 296 301 309 317 322 324 322 316 314 315 309 295 274 276 288 291 287 283 278 274 272 272 273 274 274 273 272 271 271 271 270 269 268 267 266 264
269 269 274 269 249 233 226 228 242 254 255 250 244 252 325 350 10 5 355 353 201 210 217 218 203 182 178 192 197 193 191 196 221 244 273 303 306 300 296 294 292 292 292 290 290 293 295 296 297 299 303 310 319 325 326 325 322 313 310 312 308 300 287 281 292 300 299 296 290 282 279 277 277 277 274 270 266 265 265 265 266 267 267 266 265 264
265 262 259 241 221 209 206 211 251 254 214 209 209 205 254 319 336 346 350 351 293 236 227 224 215 207 211 219 223 234 254 282 298 297 296 304 308 308 305 302 298 296 296 297 298 298 298 299 299 300 302 308 318 326 324 320 316 305 299 305 307 302 293 289 300 310 307 304 302 297 291 287 283 280 277 273 267 263 261 260 259 260 261 261 261 261
255 242 222 209 210 216 206 195 210 193 180 183 193 208 230 275 301 311 316 316 309 295 264 245 249 253 256 262 271 281 288 292 297 299 298 298 300 301 301 302 303 303 304 305 306 305 304 304 303 303 302 302 305 312 316 316 308 282 272 288 294 290 284 279 285 298 302 305 310 307 300 295 292 287 283 278 272 267 264 259 255 252 252 252 253 256
225 206 204 208 211 215 204 177 165 165 175 181 185 204 226 238 251 263 268 269 273 281 276 268 272 284 298 309 302 297 303 304 301 302 302 300 299 299 299 301 304 307 307 307 306 304 301 300 300 301 302 301 301 303 307 310 299 266 254 264 271 274 274 269 269 275 280 286 296 302 300 297 293 291 288 283 277 272 266 261 256 252 250 249 250 251
205 196 200 212 214 213 202 162 141 157 198 202 201 214 228 233 238 248 259 268 270 273 277 279 283 295 312 325 326 322 320 316 312 306 302 304 305 302 300 300 300 301 301 301 301 300 297 296 296 296 298 300 302 301 301 304 300 276 258 254 253 255 259 256 255 258 261 265 272 282 289 290 287 286 283 280 277 272 265 261 257 255 254 257 259 259
198 195 196 203 211 215 217 199 180 200 227 219 213 222 231 237 247 256 263 270 272 276 280 282 287 295 305 313 320 324 322 319 319 315 310 310 308 299 291 289 288 289 293 296 297 297 296 295 294 293 293 297 302 303 300 300 300 287 270 257 243 238 241 241 241 246 251 254 259 266 274 280 284 287 285 282 278 273 268 263 260 258 259 260 262 264
170 194 200 209 219 226 234 233 219 222 234 228 221 224 230 239 248 253 257 266 274 282 289 291 295 302 306 309 312 316 318 319 321 320 315 313 309 302 296 293 291 293 296 297 297 296 295 294 294 294 294 295 299 301 300 298 295 288 282 269 249 237 237 238 238 243 247 248 252 259 268 275 281 286 290 290 284 277 274 271 268 266 265 264 264 264
56 159 200 213 221 228 233 237 232 229 232 226 218 217 223 235 244 246 254 270 282 291 300 304 305 305 305 307 308 311 316 318 319 320 317 314 312 309 305 302 300 299 299 298 298 297 296 294 294 294 295 295 296 296 296 296 293 288 286 278 259 245 241 240 240 243 245 246 248 253 260 270 277 282 289 294 291 283 277 275 274 274 273 272 273 272
303 211 215 217 219 226 232 233 238 243 240 229 221 219 228 245 258 261 268 281 290 296 302 305 306 305 304 305 307 309 311 313 314 314 313 310 308 307 305 303 301 299 298 298 298 296 295 293 291 291 291 291 293 292 289 289 288 285 283 277 267 255 247 244 244 244 245 245 248 252 257 265 271 275 280 287 290 289 284 279 274 274 274 275 277 279
284 276 272 258 246 241 235 229 232 245 243 235 238 247 259 272 281 283 287 291 293 294 297 299 300 301 302 304 305 305 306 308 310 310 309 307 306 305 304 302 300 299 297 297 297 296 295 292 290 288 287 287 288 288 285 281 280 278 274 273 271 265 257 252 250 251 251 249 249 252 258 263 266 268 272 277 281 284 285 283 279 274 272 273 275 279
285 278 268 262 255 244 236 233 240 259 258 248 256 273 284 291 296 301 304 303 298 294 294 294 294 295 297 298 300 302 304 306 307 307 307 306 304 303 302 300 298 297 296 296 296 296 295 293 290 288 287 285 284 284 281 279 276 273 269 268 270 270 269 265 262 261 261 259 255 253 257 262 267 271 273 273 274 276 276 279 282 282 277 274 275 277
260 253 244 245 252 255 258 259 260 268 275 274 276 285 292 295 299 301 302 299 297 295 294 293 293 293 294 297 298 300 302 303 303 304 304 304 303 302 301 301 299 298 296 296 296 297 297 296 293 290 288 286 284 281 279 277 275 273 270 268 267 268 271 272 271 270 269 268 265 261 260 262 266 271 272 269 270 273 270 269 276 282 281 275 273 276
232 238 244 253 261 262 263 267 272 278 284 287 288 289 288 287 286 286 287 288 289 290 291 293 294 294 295 296 297 297 298 300 300 301 301 301 302 302 303 304 304 302 300 300 299 299 298 297 296 294 292 291 288 284 279 275 274 272 271 269 268 269 271 272 272 273 273 273 270 267 265 265 266 268 268 263 261 264 265 264 267 272 275 274 272 273
245 250 258 272 284 280 278 285 293 296 293 290 288 283 276 274 276 278 281 285 287 290 292 294 295 295 296 296 296 297 298 299 300 300 300 301 302 304 305 305 305 303 302 302 301 300 299 298 297 296 295 294 293 290 284 278 273 271 269 268 268 269 271 273 273 272 272 273 272 270 268 269 268 267 265 261 256 255 255 254 256 260 263 269 274 274
252 262 274 286 293 296 299 301 302 301 294 286 282 278 274 274 278 282 285 289 291 294 296 297 299 299 298 298 297 297 299 300 301 301 301 302 303 304 304 304 304 303 302 301 300 299 297 297 296 295 294 294 294 293 290 285 277 271 267 266 266 266 268 270 272 272 272 272 272 270 268 267 267 266 264 260 256 252 249 246 247 251 254 259 267 271
257 274 286 287 286 290 294 296 295 292 285 278 277 278 279 281 284 288 292 295 297 299 300 303 305 305 304 303 302 301 301 302 303 303 303 304 305 305 305 304 303 302 301 300 298 297 296 295 294 293 293 292 292 291 291 289 285 277 269 264 262 263 264 266 268 270 271 271 271 270 268 266 265 266 266 263 257 253 248 244 244 247 250 253 258 264
264 275 280 276 277 283 287 287 286 284 282 283 285 288 290 292 294 296 298 299 301 302 304 307 310 309 308 308 307 306 305 306 306 305 305 306 306 306 305 303 302 301 300 299 297 295 294 293 291 290 290 290 289 289 289 288 287 284 277 269 263 260 260 261 264 266 266 267 269 269 267 265 264 263 264 264 261 257 253 248 246 247 249 249 252 258
267 269 270 270 273 278 281 283 285 287 289 291 293 295 297 298 299 300 301 301 302 303 305 309 312 311 310 309 308 307 307 307 307 307 306 307 308 307 305 304 303 302 301 298 296 294 292 290 288 287 286 286 286 286 287 287 285 284 283 279 272 265 260 259 261 263 264 263 264 265 264 263 262 261 260 261 261 260 258 255 251 250 250 250 250 254
Height
3191 3192 3192 3193 3194 3195 3196 3196 3196 3196 3196 3196 3195 3195 3194 3193 3191 3191 3191 3190 3190 3190 3189 3189 3188 3189 3190 3190 3190 3190 3190 3190 3189 3189 3188 3188 3188 3188 3188 3188 3188 3189 3189 3189 3188 3188 3188 3188 3188 3188 3188 3189 3189 3190 3190 3190 3190 3190 3190 3191 3191 3191 3192 3192 3193 3193 3193 3194 3194 3194 3195 3195 3194 3193 3193 3193 3193 3193 3192 3192 3191 3191 3192 3192 3193 3194
3191 3192 3192 3193 3194 3194 3195 3195 3195 3195 3195 3195 3195 3194 3193 3192 3191 3191 3190 3189 3189 3188 3188 3188 3188 3188 3189 3189 3189 3189 3190 3190 3189 3188 3188 3188 3188 3188 3187 3187 3188 3188 3188 3188 3188 3188 3188 3188 3188 3188 3188 3188 3188 3189 3189 3189 3189 3189 3189 3189 3189 3190 3190 3191 3191 3192 3192 3193 3193 3193 3194 3194 3194 3193 3192 3192 3192 3192 3191 3191 3191 3191 3191 3191 3193 3194
3191 3191 3192 3192 3193 3193 3194 3194 3194 3195 3194 3194 3194 3193 3192 3192 3191 3190 3190 3189 3188 3188 3187 3187 3187 3188 3188 3188 3189 3189 3189 3189 3188 3188 3187 3188 3188 3187 3187 3187 3187 3187 3187 3187 3188 3188 3188 3188 3188 3188 3187 3187 3187 3187 3187 3187 3187 3187 3187 3188 3188 3188 3189 3189 3190 3190 3191 3191 3191 3192 3192 3192 3193 3193 3192 3192 3192 3191 3190 3190 3190 3190 3190 3191 3192 3193
3190 3191 3191 3192 3192 3192 3193 3193 3193 3193 3193 3193 3193 3193 3192 3192 3191 3190 3189 3188 3188 3187 3187 3187 3187 3187 3187 3187 3188 3188 3188 3188 3187 3187 3187 3187 3187 3187 3187 3186 3186 3185 3186 3186 3187 3187 3187 3187 3187 3187 3186 3186 3186 3186 3186 3186 3186 3186 3186 3187 3187 3187 3187 3188 3188 3189 3190 3190 3190 3190 3190 3191 3191 3191 3192 3191 3191 3191 3190 3190 3189 3189 3190 3190 3192 3193
3189 3190 3191 3191 3191 3191 3192 3192 3192 3192 3192 3192 3192 3192 3192 3191 3191 3190 3189 3188 3187 3186 3186 3186 3187 3186 3186 3187 3187 3187 3187 3187 3187 3186 3186 3186 3186 3186 3186 3186 3185 3185 3184 3185 3185 3186 3186 3186 3186 3185 3185 3185 3185 3185 3185 3185 3185 3185 3185 3186 3186 3186 3186 3187 3187 3188 3188 3189 3189 3190 3190 3190 3190 3190 3191 3191 3190 3190 3190 3189 3189 3189 3189 3190 3191 3192
3189 3190 3190 3190 3191 3190 3191 3191 3191 3191 3191 3191 3191 3191 3191 3191 3190 3190 3189 3188 3187 3186 3186 3186 3186 3186 3185 3186 3186 3186 3186 3186 3186 3186 3186 3186 3186 3185 3185 3185 3184 3184 3183 3183 3183 3184 3184 3184 3183 3183 3183 3183 3183 3184 3184 3184 3184 3184 3185 3185 3185 3186 3186 3186 3186 3187 3187 3188 3188 3189 3189 3189 3190 3190 3190 3189 3189 3189 3189 3189 3189 3189 3189 3189 3190 3192
3188 3189 3189 3190 3190 3190 3190 3190 3190 3191 3190 3190 3191 3191 3190 3190 3190 3189 3188 3188 3187 3186 3185 3186 3186 3185 3185 3185 3186 3185 3185 3185 3185 3185 3185 3185 3185 3185 3185 3184 3183 3183 3182 3182 3182 3181 3181 3181 3181 3181 3182 3182 3183 3183 3183 3183 3183 3183 3184 3184 3185 3185 3185 3185 3185 3185 3186 3187 3187 3187 3188 3188 3188 3188 3188 3188 3188 3188 3188 3188 3188 3188 3189 3189 3189 3191
3188 3189 3189 3189 3189 3189 3189 3189 3190 3190 3189 3189 3190 3190 3190 3189 3189 3188 3188 3187 3186 3186 3186 3185 3186 3186 3185 3185 3185 3185 3185 3184 3184 3185 3185 3185 3184 3184 3184 3184 3183 3182 3182 3181 3180 3180 3179 3179 3179 3180 3181 3181 3181 3181 3181 3182 3182 3182 3183 3183 3184 3184 3184 3183 3183 3184 3184 3185 3186 3186 3186 3187 3187 3187 3186 3186 3187 3187 3187 3187 3187 3187 3188 3188 3189 3190
3188 3188 3189 3188 3188 3188 3188 3189 3189 3189 3188 3189 3189 3189 3189 3188 3188 3187 3187 3187 3186 3186 3186 3185 3185 3186 3185 3184 3184 3184 3184 3184 3184 3184 3185 3184 3184 3183 3183 3183 3182 3182 3181 3180 3179 3179 3178 3178 3178 3178 3179 3179 3179 3179 3180 3180 3181 3181 3182 3182 3182 3182 3182 3181 3180 3181 3182 3183 3184 3185 3185 3185 3186 3186 3186 3186 3186 3186 3187 3187 3187 3187 3187 3187 3188 3189
3187 3188 3188 3188 3187 3187 3188 3188 3188 3188 3188 3188 3188 3188 3188 3187 3187 3186 3186 3186 3186 3186 3185 3185 3184 3185 3184 3183 3183 3183 3183 3183 3184 3184 3184 3184 3183 3183 3182 3182 3182 3181 3180 3179 3179 3178 3178 3178 3177 3177 3177 3177 3177 3178 3178 3178 3179 3180 3180 3180 3179 3180 3181 3181 3181 3180 3180 3181 3183 3183 3184 3184 3184 3184 3184 3185 3185 3186 3187 3187 3187 3187 3186 3187 3187 3188
3187 3187 3187 3187 3186 3186 3186 3186 3187 3187 3187 3187 3187 3187 3187 3186 3186 3185 3185 3185 3185 3185 3184 3183 3183 3184 3183 3182 3182 3183 3183 3183 3183 3183 3183 3183 3183 3182 3182 3182 3182 3181 3180 3179 3178 3178 3178 3178 3177 3177 3176 3176 3176 3176 3176 3177 3177 3178 3178 3178 3178 3179 3179 3179 3180 3180 3180 3180 3181 3182 3182 3183 3183 3183 3183 3184 3184 3185 3186 3187 3187 3187 3186 3186 3187 3188
3186 3186 3186 3185 3184 3184 3183 3184 3185 3186 3186 3186 3186 3186 3186 3185 3184 3184 3184 3184 3185 3185 3183 3182 3183 3183 3183 3182 3182 3182 3183 3183 3183 3183 3183 3183 3183 3182 3182 3182 3181 3180 3180 3179 3179 3178 3178 3178 3177 3176 3176 3175 3175 3175 3175 3175 3175 3176 3176 3176 3177 3177 3176 3176 3177 3178 3179 3178 3179 3180 3180 3181 3181 3182 3182 3182 3183 3184 3185 3186 3187 3187 3186 3186 3186 3188
3185 3185 3185 3184 3183 3182 3182 3182 3183 3184 3185 3185 3185 3185 3185 3185 3184 3184 3184 3185 3184 3183 3182 3182 3182 3183 3182 3181 3182 3182 3182 3183 3183 3183 3183 3183 3183 3183 3182 3181 3181 3180 3180 3179 3179 3178 3178 3177 3177 3176 3175 3175 3174 3174 3173 3173 3173 3174 3174 3174 3175 3175 3175 3175 3176 3176 3177 3177 3177 3178 3178 3179 3180 3181 3181 3181 3182 3183 3183 3185 3186 3187 3186 3186 3186 3187
3184 3185 3184 3184 3182 3181 3181 3181 3182 3183 3183 3184 3184 3184 3184 3185 3186 3186 3186 3185 3183 3182 3182 3183 3183 3183 3182 3181 3181 3182 3182 3182 3182 3183 3183 3183 3183 3183 3182 3181 3180 3180 3180 3179 3179 3178 3178 3177 3176 3175 3174 3174 3173 3173 3172 3171 3171 3172 3172 3173 3174 3174 3174 3174 3174 3175 3175 3176 3176 3176 3177 3178 3179 3180 3180 3181 3181 3182 3183 3184 3185 3186 3186 3186 3186 3187
3185 3185 3184 3183 3182 3181 3180 3180 3181 3182 3182 3183 3183 3183 3183 3184 3185 3185 3184 3183 3182 3182 3183 3183 3183 3182 3181 3181 3181 3181 3182 3182 3182 3183 3183 3183 3183 3183 3182 3181 3180 3180 3179 3179 3178 3178 3177 3177 3176 3175 3174 3173 3172 3171 3170 3170 3170 3170 3171 3172 3172 3173 3173 3173 3173 3174 3174 3174 3175 3175 3176 3177 3178 3179 3179 3180 3180 3181 3182 3184 3185 3185 3186 3186 3186 3186
3185 3185 3184 3183 3182 3181 3180 3180 3180 3181 3181 3182 3182 3182 3183 3183 3183 3183 3183 3182 3182 3182 3183 3183 3182 3181 3181 3181 3181 3181 3182 3182 3183 3183 3183 3183 3183 3183 3182 3181 3180 3180 3179 3179 3178 3178 3177 3176 3175 3174 3173 3172 3171 3170 3169 3169 3169 3169 3170 3170 3171 3171 3171 3171 3172 3172 3172 3173 3173 3174 3174 3175 3176 3178 3179 3179 3179 3180 3181 3183 3184 3184 3185 3185 3185 3186
3184 3184 3185 3184 3183 3182 3181 3180 3180 3180 3181 3181 3182 3181 3182 3182 3182 3182 3182 3182 3183 3183 3183 3183 3182 3181 3181 3181 3181 3181 3182 3182 3183 3183 3183 3183 3183 3183 3182 3181 3180 3180 3179 3178 3178 3177 3176 3176 3174 3173 3172 3171 3171 3170 3169 3169 3168 3168 3168 3169 3169 3169 3169 3170 3170 3170 3170 3171 3172 3172 3173 3174 3175 3176 3178 3178 3179 3179 3180 3182 3183 3183 3184 3184 3185 3185
3184 3184 3184 3184 3183 3183 3182 3181 3180 3180 3180 3180 3181 3181 3181 3181 3181 3181 3182 3183 3184 3184 3183 3182 3182 3181 3181 3181 3181 3181 3182 3182 3183 3183 3184 3184 3183 3182 3182 3181 3180 3180 3179 3178 3177 3176 3176 3175 3174 3173 3172 3171 3170 3170 3169 3168 3168 3168 3167 3167 3167 3167 3166 3167 3168 3169 3169 3170 3171 3171 3172 3173 3174 3175 3176 3177 3177 3178 3179 3181 3182 3182 3182 3183 3183 3184
3184 3184 3184 3184 3184 3183 3183 3182 3181 3180 3180 3180 3180 3180 3180 3180 3180 3180 3181 3182 3184 3185 3184 3182 3181 3181 3180 3180 3181 3181 3182 3182 3183 3184 3184 3183 3183 3182 3181 3181 3180 3179 3179 3177 3176 3176 3175 3175 3174 3173 3172 3171 3170 3170 3169 3168 3167 3167 3167 3166 3166 3164 3164 3166 3167 3168 3168 3169 3169 3170 3171 3172 3173 3174 3175 3175 3176 3176 3177 3179 3180 3180 3181 3181 3182 3183
3184 3184 3184 3183 3183 3183 3182 3182 3182 3181 3181 3181 3181 3181 3180 3180 3180 3180 3181 3180 3181 3184 3185 3183 3181 3180 3179 3180 3181 3181 3182 3182 3183 3184 3183 3183 3182 3182 3181 3181 3180 3179 3178 3177 3176 3175 3175 3175 3174 3173 3172 3171 3170 3169 3169 3168 3167 3167 3166 3166 3165 3164 3164 3165 3166 3166 3167 3168 3168 3169 3170 3171 3171 3172 3173 3173 3174 3174 3175 3176 3177 3177 3178 3179 3181 3183
3184 3184 3183 3183 3183 3183 3182 3182 3182 3182 3181 3181 3181 3181 3181 3181 3180 3180 3180 3180 3180 3182 3183 3183 3181 3179 3178 3179 3180 3180 3181 3182 3182 3183 3182 3182 3182 3181 3181 3180 3180 3179 3178 3177 3176 3175 3175 3174 3174 3173 3172 3171 3170 3169 3168 3168 3167 3166 3166 3165 3164 3164 3163 3164 3165 3166 3167 3167 3168 3168 3169 3169 3170 3170 3171 3172 3172 3173 3173 3173 3172 3174 3177 3179 3180 3181
3184 3183 3183 3183 3183 3183 3182 3182 3182 3182 3181 3181 3181 3181 3181 3181 3181 3180 3180 3180 3179 3179 3180 3181 3180 3177 3177 3179 3179 3180 3181 3181 3182 3181 3181 3181 3181 3181 3181 3180 3179 3179 3178 3177 3176 3175 3175 3174 3174 3173 3172 3171 3170 3169 3168 3167 3167 3166 3165 3164 3164 3163 3163 3163 3164 3165 3165 3166 3167 3167 3168 3168 3169 3169 3169 3170 3170 3171 3170 3169 3171 3175 3177 3178 3179 3179
3183 3183 3183 3183 3183 3183 3183 3182 3182 3182 3182 3181 3181 3182 3182 3182 3181 3181 3181 3180 3180 3179 3179 3179 3178 3176 3177 3178 3178 3179 3180 3180 3181 3180 3180 3181 3181 3181 3180 3180 3179 3178 3178 3177 3176 3175 3175 3174 3173 3173 3172 3170 3169 3169 3168 3167 3166 3165 3165 3164 3163 3163 3163 3163 3163 3164 3164 3165 3166 3166 3167 3167 3168 3168 3168 3168 3168 3168 3166 3167 3172 3174 3174 3175 3177 3177
3182 3182 3182 3182 3183 3183 3183 3182 3182 3181 3182 3181 3181 3182 3182 3182 3182 3182 3182 3181 3180 3179 3178 3178 3177 3176 3177 3177 3178 3178 3178 3179 3179 3179 3179 3180 3180 3180 3180 3179 3178 3178 3177 3176 3175 3174 3174 3173 3173 3172 3171 3169 3168 3168 3167 3166 3166 3165 3165 3164 3164 3163 3163 3163 3163 3163 3164 3164 3165 3165 3166 3166 3166 3166 3167 3166 3166 3166 3163 3165 3171 3172 3172 3173 3174 3175
3181 3182 3182 3182 3182 3183 3183 3182 3182 3181 3181 3181 3181 3182 3182 3182 3182 3182 3181 3181 3180 3179 3178 3178 3177 3176 3176 3176 3177 3177 3177 3177 3177 3178 3178 3178 3179 3179 3178 3178 3177 3176 3176 3175 3174 3173 3173 3172 3171 3170 3169 3168 3167 3166 3166 3165 3165 3165 3165 3165 3164 3164 3164 3164 3163 3163 3163 3163 3164 3164 3164 3165 3165 3165 3165 3164 3164 3163 3160 3163 3169 3170 3169 3171 3172 3173
3181 3181 3181 3181 3182 3183 3183 3182 3181 3181 3180 3181 3181 3181 3181 3181 3181 3181 3181 3180 3179 3178 3178 3177 3176 3175 3175 3175 3175 3176 3176 3176 3176 3177 3177 3177 3177 3177 3177 3176 3175 3174 3174 3173 3173 3172 3171 3170 3169 3168 3167 3166 3165 3165 3165 3164 3165 3165 3165 3165 3164 3164 3164 3164 3164 3163 3163 3163 3163 3163 3163 3163 3163 3163 3163 3162 3162 3160 3157 3160 3166 3167 3167 3169 3169 3170
3180 3180 3180 3180 3180 3181 3181 3181 3181 3180 3180 3180 3180 3180 3180 3180 3180 3180 3180 3179 3179 3178 3176 3175 3175 3174 3174 3174 3175 3175 3175 3175 3175 3175 3176 3176 3176 3176 3175 3174 3173 3172 3172 3171 3171 3170 3169 3169 3168 3167 3165 3164 3164 3163 3163 3163 3163 3164 3164 3164 3164 3164 3164 3163 3163 3163 3162 3162 3162 3161 3161 3161 3161 3161 3161 3160 3160 3158 3155 3158 3163 3164 3164 3166 3167 3167
3179 3179 3179 3179 3179 3179 3180 3180 3180 3179 3179 3179 3178 3178 3178 3179 3179 3178 3178 3178 3178 3177 3175 3174 3174 3173 3173 3173 3173 3173 3173 3173 3173 3173 3174 3174 3174 3174 3173 3172 3172 3171 3170 3169 3169 3169 3168 3168 3167 3166 3165 3163 3163 3162 3162 3162 3162 3163 3163 3163 3163 3164 3164 3163 3162 3161 3161 3161 3160 3160 3160 3160 3159 3159 3159 3159 3159 3158 3155 3156 3160 3162 3162 3163 3164 3165
3179 3179 3179 3179 3179 3179 3179 3179 3179 3178 3178 3177 3177 3176 3176 3176 3176 3176 3176 3176 3175 3174 3173 3173 3173 3172 3172 3172 3171 3171 3171 3171 3171 3171 3172 3172 3172 3172 3172 3171 3171 3170 3169 3168 3168 3167 3167 3166 3166 3165 3164 3163 3162 3162 3162 3162 3162 3162 3163 3163 3163 3163 3163 3163 3162 3160 3159 3159 3159 3159 3158 3158 3158 3158 3158 3157 3157 3157 3155 3155 3157 3160 3160 3161 3161 3162
3178 3178 3178 3178 3178 3178 3177 3177 3177 3177 3176 3175 3175 3174 3174 3174 3174 3173 3173 3173 3172 3172 3171 3171 3171 3170 3170 3170 3170 3169 3169 3169 3169 3170 3170 3171 3172 3172 3171 3171 3169 3168 3168 3167 3167 3166 3166 3165 3165 3164 3164 3164 3163 3162 3162 3162 3162 3162 3163 3163 3163 3162 3162 3162 3161 3159 3158 3157 3157 3156 3156 3156 3156 3156 3156 3156 3156 3156 3155 3154 3155 3156 3158 3158 3159 3159
3176 3176 3176 3176 3176 3176 3176 3175 3175 3175 3175 3174 3174 3173 3172 3172 3172 3171 3170 3170 3170 3169 3169 3169 3169 3169 3169 3168 3168 3168 3168 3168 3168 3169 3170 3170 3170 3170 3170 3169 3168 3167 3166 3166 3165 3165 3164 3164 3164 3163 3164 3164 3164 3164 3163 3163 3162 3162 3162 3162 3161 3160 3160 3160 3159 3158 3156 3155 3155 3155 3155 3154 3154 3154 3154 3154 3154 3154 3154 3154 3153 3154 3154 3155 3156 3157
3174 3174 3174 3174 3174 3174 3174 3174 3174 3174 3173 3173 3172 3172 3171 3171 3170 3170 3169 3169 3169 3168 3168 3168 3168 3168 3168 3167 3167 3167 3167 3168 3168 3168 3168 3168 3168 3168 3167 3167 3165 3165 3164 3164 3163 3163 3162 3162 3162 3162 3163 3163 3164 3164 3164 3163 3163 3162 3161 3160 3158 3157 3157 3157 3157 3157 3156 3155 3154 3153 3153 3153 3153 3153 3152 3152 3152 3152 3152 3152 3152 3152 3152 3153 3153 3154
3171 3171 3171 3171 3171 3171 3172 3172 3172 3172 3172 3171 3171 3170 3170 3170 3169 3169 3168 3168 3168 3168 3168 3168 3168 3168 3167 3167 3167 3167 3167 3167 3167 3166 3166 3166 3166 3166 3165 3164 3163 3163 3163 3162 3162 3161 3160 3160 3160 3160 3161 3163 3164 3164 3164 3164 3163 3162 3160 3159 3158 3156 3154 3154 3155 3156 3156 3155 3153 3152 3152 3151 3151 3151 3151 3151 3150 3150 3150 3150 3150 3151 3151 3151 3151 3151
3168 3168 3169 3169 3169 3169 3170 3170 3170 3170 3170 3170 3170 3170 3170 3169 3169 3169 3168 3168 3168 3168 3168 3168 3168 3168 3167 3166 3166 3166 3166 3165 3164 3163 3163 3164 3164 3165 3164 3163 3162 3161 3161 3161 3161 3160 3159 3159 3159 3159 3159 3161 3163 3164 3163 3163 3162 3160 3158 3157 3157 3155 3154 3153 3153 3154 3155 3154 3153 3152 3151 3150 3150 3149 3149 3149 3149 3148 3148 3148 3148 3149 3149 3149 3149 3150
3165 3166 3167 3167 3167 3168 3168 3169 3169 3169 3169 3169 3169 3169 3169 3169 3169 3169 3169 3168 3168 3169 3168 3168 3168 3166 3164 3165 3167 3167 3167 3166 3164 3163 3163 3164 3164 3164 3163 3162 3161 3160 3160 3160 3160 3160 3159 3158 3158 3158 3158 3159 3161 3161 3161 3159 3159 3158 3157 3155 3154 3154 3153 3152 3151 3151 3152 3152 3151 3151 3150 3150 3149 3148 3148 3147 3147 3147 3147 3147 3147 3147 3147 3147 3147 3148
3164 3164 3165 3165 3166 3167 3167 3167 3168 3168 3168 3168 3168 3169 3169 3169 3168 3168 3168 3168 3168 3168 3168 3168 3167 3164 3163 3166 3170 3170 3169 3169 3166 3164 3165 3166 3165 3164 3163 3162 3160 3159 3158 3158 3157 3157 3157 3156 3156 3156 3156 3156 3157 3158 3158 3157 3156 3155 3155 3153 3152 3151 3150 3150 3150 3149 3149 3149 3149 3148 3148 3148 3148 3147 3147 3146 3146 3146 3145 3145 3145 3145 3145 3145 3146 3146
3162 3163 3164 3164 3165 3166 3166 3166 3167 3168 3168 3168 3168 3168 3168 3168 3168 3168 3168 3167 3168 3168 3167 3167 3166 3164 3163 3165 3169 3169 3169 3168 3167 3164 3164 3165 3165 3164 3163 3161 3159 3158 3156 3155 3155 3154 3154 3153 3152 3152 3153 3153 3153 3154 3155 3155 3154 3153 3152 3151 3150 3149 3148 3148 3147 3147 3146 3146 3145 3145 3145 3145 3145 3145 3145 3145 3144 3144 3144 3143 3143 3143 3143 3143 3144 3144
3161 3162 3163 3164 3164 3165 3165 3166 3167 3168 3167 3167 3167 3167 3167 3167 3167 3167 3167 3166 3166 3167 3166 3166 3165 3164 3163 3164 3165 3167 3167 3167 3166 3165 3165 3165 3164 3163 3161 3159 3157 3155 3154 3153 3153 3152 3151 3150 3150 3150 3150 3150 3150 3150 3151 3152 3152 3151 3149 3148 3147 3146 3145 3144 3143 3143 3142 3141 3141 3141 3141 3141 3141 3142 3142 3142 3142 3142 3142 3142 3141 3141 3141 3141 3141 3141
3161 3161 3162 3163 3163 3164 3164 3165 3165 3166 3165 3165 3166 3166 3166 3166 3166 3166 3166 3165 3165 3165 3165 3165 3165 3164 3164 3164 3163 3164 3165 3165 3165 3164 3163 3163 3162 3161 3159 3158 3156 3154 3153 3152 3151 3150 3149 3148 3147 3147 3147 3147 3147 3147 3147 3148 3149 3148 3147 3146 3145 3143 3141 3140 3138 3137 3137 3137 3137 3137 3138 3139 3140 3140 3140 3140 3140 3139 3139 3139 3139 3139 3139 3139 3138 3138
3161 3161 3161 3162 3162 3163 3163 3163 3164 3164 3164 3164 3165 3165 3165 3165 3165 3165 3165 3163 3163 3164 3164 3164 3164 3164 3164 3163 3163 3162 3162 3161 3161 3160 3159 3158 3157 3156 3155 3154 3153 3152 3151 3150 3149 3147 3146 3145 3144 3143 3143 3143 3143 3144 3144 3144 3145 3145 3144 3143 3142 3140 3138 3136 3134 3133 3133 3134 3134 3134 3136 3137 3139 3139 3140 3139 3138 3137 3136 3136 3136 3136 3136 3136 3136 3135
3161 3161 3161 3161 3161 3162 3162 3162 3162 3163 3163 3163 3164 3164 3164 3164 3164 3164 3164 3163 3163 3163 3163 3163 3163 3162 3162 3161 3160 3160 3159 3158 3158 3158 3156 3155 3154 3153 3152 3152 3151 3150 3149 3148 3147 3145 3144 3143 3141 3140 3139 3139 3139 3140 3141 3141 3141 3141 3141 3140 3138 3137 3134 3133 3132 3131 3131 3131 3131 3132 3134 3135 3137 3138 3139 3138 3137 3136 3135 3134 3134 3133 3133 3133 3133 3133
3161 3161 3161 3161 3161 3161 3161 3161 3162 3162 3162 3163 3163 3163 3163 3164 3164 3163 3163 3163 3163 3162 3161 3161 3160 3160 3160 3159 3158 3158 3157 3157 3156 3156 3155 3154 3153 3152 3151 3151 3150 3149 3148 3147 3145 3143 3141 3139 3138 3137 3136 3135 3135 3136 3138 3138 3137 3137 3137 3135 3134 3133 3131 3130 3129 3128 3128 3128 3129 3131 3132 3134 3135 3135 3135 3134 3134 3134 3134 3133 3132 3131 3131 3130 3130 3130
3160 3160 3160 3160 3160 3160 3160 3161 3161 3161 3161 3162 3162 3162 3162 3162 3162 3162 3162 3162 3162 3161 3160 3160 3159 3158 3157 3157 3156 3155 3155 3154 3153 3153 3152 3152 3151 3150 3149 3148 3147 3146 3145 3143 3142 3140 3137 3136 3134 3132 3131 3131 3131 3132 3133 3134 3134 3134 3133 3131 3130 3129 3128 3128 3127 3126 3125 3126 3128 3130 3131 3132 3132 3132 3131 3131 3132 3132 3132 3131 3130 3130 3129 3128 3128 3128
3159 3159 3159 3159 3160 3160 3160 3160 3160 3160 3161 3161 3161 3161 3161 3161 3160 3160 3160 3160 3159 3159 3159 3158 3157 3156 3155 3154 3154 3153 3152 3151 3149 3148 3148 3147 3146 3146 3145 3144 3142 3141 3140 3139 3137 3135 3133 3131 3130 3128 3127 3126 3127 3127 3129 3129 3129 3130 3130 3128 3126 3125 3125 3125 3124 3123 3123 3124 3126 3129 3130 3130 3130 3130 3129 3128 3128 3129 3129 3128 3128 3128 3127 3126 3126 3125
3159 3158 3158 3159 3159 3159 3159 3159 3159 3160 3160 3160 3160 3160 3159 3159 3159 3158 3158 3158 3157 3157 3156 3156 3155 3154 3153 3152 3151 3149 3148 3147 3145 3144 3143 3142 3141 3140 3139 3138 3137 3136 3134 3133 3132 3130 3128 3126 3125 3124 3122 3121 3121 3122 3124 3124 3123 3124 3125 3124 3122 3121 3121 3121 3120 3120 3120 3121 3124 3126 3127 3126 3126 3126 3125 3124 3124 3125 3126 3125 3125 3125 3125 3124 3123 3123
3158 3158 3158 3158 3158 3158 3158 3158 3158 3159 3159 3159 3159 3159 3158 3158 3158 3157 3157 3156 3156 3155 3154 3153 3153 3152 3150 3149 3147 3146 3145 3143 3141 3140 3139 3137 3136 3135 3134 3133 3132 3131 3130 3129 3128 3126 3124 3122 3121 3120 3118 3116 3116 3117 3118 3119 3118 3117 3118 3119 3118 3117 3117 3116 3116 3116 3116 3117 3120 3122 3123 3122 3122 3122 3121 3121 3121 3121 3121 3121 3122 3123 3122 3121 3121 3120
3157 3157 3157 3157 3157 3157 3157 3157 3157 3157 3157 3157 3157 3157 3157 3156 3156 3156 3155 3154 3154 3153 3152 3151 3149 3148 3147 3145 3143 3142 3140 3139 3137 3136 3134 3133 3132 3131 3130 3129 3128 3127 3126 3125 3123 3122 3120 3118 3117 3116 3114 3113 3112 3112 3112 3113 3113 3112 3111 3112 3112 3111 3111 3111 3110 3110 3111 3112 3115 3117 3118 3118 3118 3118 3117 3117 3117 3116 3116 3116 3117 3118 3119 3119 3118 3117
3156 3156 3156 3156 3156 3156 3156 3155 3155 3155 3155 3155 3156 3155 3155 3155 3154 3154 3153 3152 3152 3150 3149 3148 3146 3145 3143 3142 3140 3138 3137 3135 3133 3131 3130 3129 3128 3127 3126 3125 3124 3123 3122 3121 3120 3118 3116 3115 3113 3112 3111 3110 3109 3108 3107 3108 3108 3107 3106 3105 3106 3106 3106 3105 3105 3105 3106 3107 3109 3112 3114 3114 3114 3113 3112 3112 3112 3112 3112 3112 3112 3113 3114 3115 3114 3114
3155 3155 3155 3155 3155 3155 3155 3154 3154 3154 3154 3154 3154 3154 3153 3153 3152 3152 3151 3150 3149 3147 3146 3145 3143 3142 3140 3138 3137 3135 3133 3132 3131 3128 3127 3126 3125 3123 3122 3121 3120 3119 3118 3117 3115 3114 3113 3111 3109 3108 3106 3106 3105 3104 3104 3103 3103 3102 3101 3100 3099 3100 3101 3100 3099 3099 3101 3102 3104 3107 3109 3110 3109 3109 3108 3108 3107 3107 3107 3108 3108 3108 3109 3110 3110 3110
3155 3155 3154 3154 3154 3154 3154 3154 3154 3154 3153 3153 3152 3152 3151 3150 3149 3149 3148 3147 3145 3144 3143 3142 3141 3139 3137 3136 3134 3132 3130 3129 3128 3126 3124 3122 3121 3120 3118 3117 3115 3114 3114 3112 3111 3110 3108 3107 3105 3103 3102 3102 3101 3100 3100 3099 3099 3098 3097 3095 3094 3094 3095 3095 3094 3094 3095 3097 3099 3101 3103 3104 3105 3104 3104 3103 3103 3103 3103 3103 3104 3104 3104 3105 3105 3105
3154 3154 3153 3153 3153 3153 3153 3152 3152 3152 3152 3151 3150 3149 3148 3147 3146 3145 3144 3143 3142 3141 3139 3138 3137 3136 3135 3134 3132 3129 3128 3126 3125 3123 3121 3120 3118 3116 3114 3113 3111 3110 3109 3108 3106 3105 3104 3102 3101 3099 3098 3097 3097 3096 3096 3095 3095 3094 3093 3091 3090 3089 3090 3090 3089 3089 3090 3093 3095 3096 3098 3099 3100 3100 3100 3099 3099 3099 3099 3099 3100 3100 3100 3100 3100 3101